Weather History for KBPC - September, 2012

Change the Weather History Date:

Monday, September 3, 2012

  Actual Average Record
Temperature  
Mean Temperature 85 °F -  
Max Temperature 102 °F - - ()
Min Temperature 68 °F - - ()
Cooling Degree Days 20    
Growing Degree Days 35 (Base 50)    
Moisture  
Dew Point 52 °F    
Average Humidity 33    
Maximum Humidity 60    
Minimum Humidity 14    
Precipitation  
Precipitation 0.00 in - - ()
Sea Level Pressure  
Sea Level Pressure 29.97 in    
Wind  
Wind Speed 11 mph (SSW)    
Max Wind Speed 18 mph    
Max Gust Speed 24 mph    
Visibility 10 miles    
Events      
Averages and records for this station are not official NWS values.
T = Trace of Precipitation, MM = Missing Value Source: NWS Daily Summary

Daily Weather History Graph

Daily Weather History Graph

Search for Another Location

Airport or City:

Trip Planner

Search our weather history database for the weather conditions in past years. The results will help you decide how hot, cold, wet, or windy it might be!

Date:

Astronomy

Sep. 03, 2012 Rise Set
Actual Time 7:17 AM CDT 8:07 PM CDT
Civil Twilight 6:51 AM CDT 8:33 PM CDT
Nautical Twilight 6:21 AM CDT 9:04 PM CDT
Astronomical Twilight 5:49 AM CDT 9:36 PM CDT
Moon 9:37 PM CDT (9/3) 10:19 AM CDT (9/3)
Length of Visible Light 13h 42m
Length of Day
12h 50m
Waning Gibbous, 90% of the Moon is Illuminated
Sep 3
Waning Gibbous
Sep 8
Last Quarter
Sep 15
New
Sep 22
First Quarter
Sep 29
Full

Hourly Weather History & Observations

Time (CDT) Temp. Heat Index Dew Point Humidity Pressure Visibility Wind Dir Wind Speed Gust Speed Precip Events Conditions
12:15 AM 82.4 °F 81.4 °F 53.6 °F 37% 29.95 in 10.0 mi South 15.0 mph 20.7 mph N/A   Clear
12:35 AM 82.4 °F 81.4 °F 53.6 °F 37% 29.95 in 10.0 mi South 16.1 mph 20.7 mph N/A   Clear
12:55 AM 84.2 °F 82.8 °F 53.6 °F 35% 29.95 in 10.0 mi South 18.4 mph 24.2 mph N/A   Clear
1:15 AM 84.2 °F 82.8 °F 53.6 °F 35% 29.95 in 10.0 mi South 16.1 mph 23.0 mph N/A   Clear
1:35 AM 84.2 °F 82.8 °F 53.6 °F 35% 29.95 in 10.0 mi SSW 16.1 mph 23.0 mph N/A   Clear
1:55 AM 82.4 °F 81.4 °F 53.6 °F 37% 29.95 in 10.0 mi SSW 16.1 mph 24.2 mph N/A   Clear
2:15 AM 82.4 °F 81.4 °F 53.6 °F 37% 29.96 in 10.0 mi SSW 12.7 mph - N/A   Clear
2:35 AM 80.6 °F 80.5 °F 55.4 °F 42% 29.96 in 10.0 mi SW 6.9 mph - N/A   Clear
2:55 AM 77.0 °F - 53.6 °F 44% 29.96 in 10.0 mi WSW 8.1 mph - N/A   Clear
3:15 AM 77.0 °F - 53.6 °F 44% 29.96 in 10.0 mi SW 8.1 mph - N/A   Clear
3:35 AM 73.4 °F - 53.6 °F 50% 29.96 in 10.0 mi SW 5.8 mph - N/A   Clear
3:55 AM 71.6 °F - 53.6 °F 53% 29.96 in 10.0 mi West 6.9 mph - N/A   Clear
4:15 AM 71.6 °F - 53.6 °F 53% 29.97 in 10.0 mi West 6.9 mph - N/A   Clear
4:35 AM 71.6 °F - 53.6 °F 53% 29.97 in 10.0 mi SW 6.9 mph - N/A   Clear
4:55 AM 69.8 °F - 53.6 °F 56% 29.97 in 10.0 mi SW 9.2 mph - N/A   Clear
5:15 AM 71.6 °F - 53.6 °F 53% 29.98 in 10.0 mi SW 8.1 mph - N/A   Clear
5:35 AM 73.4 °F - 53.6 °F 50% 29.98 in 10.0 mi SW 9.2 mph - N/A   Clear
5:55 AM 71.6 °F - 53.6 °F 53% 29.98 in 10.0 mi SW 9.2 mph - N/A   Clear
6:15 AM 73.4 °F - 53.6 °F 50% 29.99 in 10.0 mi WSW 8.1 mph - N/A   Clear
6:35 AM 71.6 °F - 53.6 °F 53% 29.99 in 10.0 mi WSW 6.9 mph - N/A   Clear
6:55 AM 69.8 °F - 53.6 °F 56% 30.00 in 10.0 mi Calm Calm - N/A   Clear
7:15 AM 68.0 °F - 53.6 °F 60% 30.00 in 10.0 mi Calm Calm - N/A   Clear
7:35 AM 69.8 °F - 53.6 °F 56% 30.01 in 10.0 mi WSW 3.5 mph - N/A   Clear
7:55 AM 68.0 °F - 53.6 °F 60% 30.01 in 10.0 mi Calm Calm - N/A   Clear
8:15 AM 69.8 °F - 53.6 °F 56% 30.02 in 10.0 mi Calm Calm - N/A   Clear
8:35 AM 71.6 °F - 55.4 °F 57% 30.03 in 10.0 mi SW 5.8 mph - N/A   Clear
8:55 AM 77.0 °F - 55.4 °F 47% 30.03 in 10.0 mi SW 9.2 mph - N/A   Clear
9:15 AM 78.8 °F - 55.4 °F 44% 30.02 in 10.0 mi WSW 12.7 mph - N/A   Clear
9:35 AM 80.6 °F 80.5 °F 55.4 °F 42% 30.01 in 10.0 mi SW 10.4 mph 17.3 mph N/A   Clear
9:55 AM 84.2 °F 83.0 °F 55.4 °F 37% 30.02 in 10.0 mi WSW 11.5 mph - N/A   Clear
10:15 AM 87.8 °F 86.1 °F 55.4 °F 33% 30.03 in 10.0 mi WSW 13.8 mph - N/A   Clear
10:35 AM 87.8 °F 86.1 °F 55.4 °F 33% 30.03 in 10.0 mi WSW 12.7 mph - N/A   Clear
10:55 AM 89.6 °F 87.7 °F 55.4 °F 31% 30.03 in 10.0 mi WSW 15.0 mph - N/A   Clear
11:15 AM 91.4 °F 89.4 °F 55.4 °F 29% 30.03 in 10.0 mi West 13.8 mph 18.4 mph N/A   Clear
11:35 AM 95.0 °F 93.0 °F 55.4 °F 26% 30.01 in 10.0 mi SW 12.7 mph - N/A   Clear
11:55 AM 95.0 °F 93.0 °F 55.4 °F 26% 30.01 in 10.0 mi SW 5.8 mph - N/A   Clear
12:15 PM 96.8 °F - 51.8 °F 22% 30.00 in 10.0 mi SSW 11.5 mph - N/A   Clear
12:35 PM 96.8 °F - 48.2 °F 19% 30.00 in 10.0 mi SW 8.1 mph 21.9 mph N/A   Clear
12:55 PM 98.6 °F - 48.2 °F 18% 30.00 in 10.0 mi SSW 8.1 mph 20.7 mph N/A   Clear
1:15 PM 98.6 °F - 46.4 °F 17% 29.99 in 10.0 mi WSW 6.9 mph 18.4 mph N/A   Clear
1:35 PM 100.4 °F - 46.4 °F 16% 29.99 in 10.0 mi SSE 8.1 mph 17.3 mph N/A   Clear
1:55 PM 98.6 °F - 44.6 °F 16% 29.98 in 10.0 mi SW 10.4 mph 18.4 mph N/A   Clear
2:15 PM 100.4 °F - 44.6 °F 15% 29.97 in 10.0 mi SSW 5.8 mph 17.3 mph N/A   Clear
2:35 PM 100.4 °F - 44.6 °F 15% 29.96 in 10.0 mi SW 11.5 mph 18.4 mph N/A   Clear
2:55 PM 100.4 °F - 44.6 °F 15% 29.96 in 10.0 mi West 4.6 mph 16.1 mph N/A   Clear
3:15 PM 100.4 °F - 44.6 °F 15% 29.95 in 10.0 mi SSE 6.9 mph 18.4 mph N/A   Scattered Clouds
3:35 PM 102.2 °F - 44.6 °F 14% 29.94 in 10.0 mi WSW 8.1 mph - N/A   Scattered Clouds
4:15 PM 102.2 °F - 44.6 °F 14% 29.93 in 10.0 mi SSW 9.2 mph 17.3 mph N/A   Mostly Cloudy
4:35 PM 100.4 °F - 44.6 °F 15% 29.92 in 10.0 mi Calm Calm - N/A   Scattered Clouds
4:55 PM 100.4 °F - 44.6 °F 15% 29.92 in 10.0 mi South 9.2 mph - N/A   Mostly Cloudy
5:15 PM 100.4 °F - 44.6 °F 15% 29.91 in 10.0 mi West 4.6 mph - N/A   Mostly Cloudy
5:35 PM 98.6 °F - 44.6 °F 16% 29.91 in 10.0 mi SSW 4.6 mph - N/A   Clear
5:55 PM 100.4 °F - 44.6 °F 15% 29.91 in 10.0 mi SSW 5.8 mph - N/A   Scattered Clouds
6:15 PM 100.4 °F - 46.4 °F 16% 29.91 in 10.0 mi South 13.8 mph 18.4 mph N/A   Scattered Clouds
6:35 PM 100.4 °F - 50.0 °F 18% 29.91 in 10.0 mi SSE 11.5 mph 20.7 mph N/A   Scattered Clouds
6:55 PM 98.6 °F - 50.0 °F 19% 29.91 in 10.0 mi SSE 12.7 mph 19.6 mph N/A   Scattered Clouds
7:15 PM 96.8 °F - 50.0 °F 20% 29.91 in 10.0 mi SSE 15.0 mph 20.7 mph N/A   Clear
7:35 PM 96.8 °F - 51.8 °F 22% 29.91 in 10.0 mi SSE 17.3 mph - N/A   Clear
7:55 PM 95.0 °F - 51.8 °F 23% 29.91 in 10.0 mi SSE 15.0 mph 20.7 mph N/A   Clear
8:15 PM 91.4 °F 89.1 °F 53.6 °F 28% 29.91 in 10.0 mi SSE 13.8 mph 19.6 mph N/A   Clear
8:35 PM 91.4 °F 89.1 °F 53.6 °F 28% 29.92 in 10.0 mi SSE 15.0 mph 18.4 mph N/A   Clear
9:15 PM 89.6 °F 87.3 °F 53.6 °F 29% 29.93 in 10.0 mi SSE 13.8 mph 19.6 mph N/A   Clear
9:35 PM 87.8 °F 85.7 °F 53.6 °F 31% 29.93 in 10.0 mi SSE 13.8 mph 19.6 mph N/A   Clear
9:55 PM 87.8 °F 85.7 °F 53.6 °F 31% 29.94 in 10.0 mi SSE 13.8 mph 20.7 mph N/A   Clear
10:15 PM 87.8 °F 85.7 °F 53.6 °F 31% 29.94 in 10.0 mi SSE 15.0 mph 19.6 mph N/A   Clear
10:35 PM 86.0 °F 84.2 °F 53.6 °F 33% 29.95 in 10.0 mi SSE 15.0 mph 19.6 mph N/A   Clear
10:55 PM 86.0 °F 84.2 °F 53.6 °F 33% 29.95 in 10.0 mi SSE 16.1 mph - N/A   Clear
11:15 PM 86.0 °F 84.2 °F 53.6 °F 33% 29.96 in 10.0 mi South 15.0 mph 20.7 mph N/A   Clear
11:35 PM 84.2 °F 82.8 °F 53.6 °F 35% 29.96 in 10.0 mi South 13.8 mph 19.6 mph N/A   Clear
11:55 PM 84.2 °F 82.8 °F 53.6 °F 35% 29.96 in 10.0 mi South 13.8 mph 19.6 mph N/A   Clear